Regional Weather Roundup
Issued by NWS

Home | Current Version | Previous Version | Graphics & Text | Print | Product List | Glossary On
Versions: 1 2 3 4 5 6 7 8 9 10 11 12 13 14 15 16 17 18 19 20 21 22 23 24 25 26 27 28 29 30 31 32 33 34 35 36 37 38 39 40 41 42 43 44 45 46 47 48 49 50
000
ASUS43 KIND 211500
RWRIN

WEATHER ROUNDUP FOR INDIANA
NATIONAL WEATHER SERVICE INDIANAPOLIS IN
1100 AM EDT THU SEP 21 2017

NOTE: "FAIR" INDICATES FEW OR NO CLOUDS BELOW 12,000 FEET WITH NO
SIGNIFICANT WEATHER AND/OR OBSTRUCTIONS TO VISIBILITY.

* - STATION DOES NOT REPORT WEATHER SUCH AS PRECIPITATION OR FOG.

+ - STATION NOT QUALITY CONTROLLED BY THE NATIONAL WEATHER SERVICE.
    USE DATA WITH CAUTION...ESPECIALLY DEWPOINT AND RELATIVE
    HUMIDITY OBSERVATIONS.

INZ001>003-010>013-019-020-211600-
NORTHWEST INDIANA

CITY           SKY/WX    TMP DP  RH WIND       PRES   REMARKS

$$

LMZ046-743>745-211600-
SOUTHERN LAKE MICHIGAN

STATION/POSITION TIME  TEMP    WIND        PRES    WAVE
                       AIR SEA DIR/SP/G            HT
                 (UTC) (F)     (DEG/KT/KT) (MB)    (FT)
BURNS HARBOR     1440   80     190/  7/  9 1017.3S
MICHIGAN CITY    1430   77     150/  7/  9   N/A
5NW MICH CITY    1450   73 70  170/  4/  6   N/A     0

$$

INZ004-005-014>016-021>024-211600-
NORTH CENTRAL INDIANA

CITY           SKY/WX    TMP DP  RH WIND       PRES   REMARKS
ELKHART        SUNNY     79  72  78 S6        30.06S
GOSHEN         SUNNY     81  70  69 S10       30.07R
SOUTH BEND     SUNNY     78  72  81 S7        30.06S

$$

INZ006>009-017-018-025>027-211600-
NORTHEAST INDIANA

CITY           SKY/WX    TMP DP  RH WIND       PRES   REMARKS
FORT WAYNE     MOSUNNY   81  72  74 VRB7      30.09S
KENDALLVILLE + SUNNY     81  74  79 SW5       30.09R

$$

INZ028-029-035-036-043>045-051>053-211600-
WEST CENTRAL INDIANA

CITY           SKY/WX    TMP DP  RH WIND       PRES   REMARKS
LAFAYETTE      MOSUNNY   79  72  79 SW6       30.07R
TERRE HAUTE    SUNNY     80  71  74 S3        30.09S

$$

INZ030>032-037>040-046>048-054>057-064-065-211600-
CENTRAL INDIANA

CITY           SKY/WX    TMP DP  RH WIND       PRES   REMARKS
COLUMBUS       SUNNY     79  70  73 S6        30.12R
INDIANAPOLIS   MOSUNNY   81  72  74 S5        30.10S
-EAGLE CREEK   SUNNY     82  71  69 VRB5      30.09F
KOKOMO +       SUNNY     81  73  76 SW9       30.10R
MT COMFORT *+    N/A    N/A N/A N/A MISG        N/A
SHELBYVILLE    PTSUNNY   82  71  69 SW5       30.11R

$$

INZ033-034-041-042-049-050-058-059-211600-
EAST CENTRAL INDIANA

CITY           SKY/WX    TMP DP  RH WIND       PRES   REMARKS
MUNCIE         SUNNY     84  71  65 SW6       30.10S
RICHMOND +     SUNNY     79  72  78 SW6       30.14R

$$

INZ060-061-067>069-081>083-085>088-211600-
SOUTHWEST INDIANA

CITY           SKY/WX    TMP DP  RH WIND       PRES   REMARKS
EVANSVILLE     SUNNY     81  73  76 CALM      30.10R
HUNTINGBURG +    N/A    N/A N/A N/A MISG        N/A

$$

INZ062-063-066-070>080-084-089>092-211600-
SOUTH CENTRAL AND SOUTHEAST INDIANA

CITY           SKY/WX    TMP DP  RH WIND       PRES   REMARKS
BLOOMINGTON    MOSUNNY   84  69  60 VRB5      30.11S
MADISON *+     SUNNY     79  70  73 CALM      30.14S
SEYMOUR +      CLOUDY    81  72  74 CALM      30.11R

$$




USA.gov is the U.S. government's official web portal to all federal, state and local government web resources and services.